Weather History for Guadalupe Pass, TX

Change the Weather History Date:

Monday, May 6, 2013

  Actual Average Record
Temperature  
Mean Temperature 66 °F -  
Max Temperature 80 °F 76 °F 89 °F (2011)
Min Temperature 53 °F 53 °F 45 °F (1999)
Cooling Degree Days 1    
Growing Degree Days 16 (Base 50)    
Moisture  
Dew Point 25 °F    
Average Humidity 23    
Maximum Humidity 32    
Minimum Humidity 15    
Precipitation  
Precipitation 0.00 in - - ()
Sea Level Pressure  
Sea Level Pressure 29.90 in    
Wind  
Wind Speed 22 mph (North)    
Max Wind Speed 33 mph    
Max Gust Speed 40 mph    
Visibility 8 miles    
Events      
Averages and records for this station are not official NWS values.
T = Trace of Precipitation, MM = Missing Value Source: NWS Daily Summary

Daily Weather History Graph

Daily Weather History Graph

Search for Another Location

Airport:

Trip Planner

Search our weather history database for the weather conditions in past years. The results will help you decide how hot, cold, wet, or windy it might be!

Date:

Astronomy

May. 06, 2013 Rise Set
Actual Time 6:08 AM MDT 7:43 PM MDT
Civil Twilight 5:42 AM MDT 8:09 PM MDT
Nautical Twilight 5:11 AM MDT 8:41 PM MDT
Astronomical Twilight 4:38 AM MDT 9:14 PM MDT
Moon 4:00 AM MDT (5/6) 4:55 PM MDT (5/6)
Length of Visible Light 14h 26m
Length of Day
13h 34m
Waning Crescent, 10% of the Moon is Illuminated
May 6
Waning Crescent
May 9
New
May 17
First Quarter
May 24
Full
May 31
Last Quarter

Hourly Weather History & Observations

Time (MDT) Temp. Dew Point Humidity Pressure Visibility Wind Dir Wind Speed Gust Speed Precip Events Conditions
12:51 AM 57.9 °F 21.0 °F 24% 29.94 in 9.0 mi ENE 31.1 mph 40.3 mph N/A   Mostly Cloudy
1:51 AM 57.9 °F 21.0 °F 24% 29.90 in 9.0 mi ENE 33.4 mph 39.1 mph N/A   Mostly Cloudy
2:51 AM 57.0 °F 21.0 °F 25% 29.90 in 9.0 mi NE 28.8 mph - N/A   Mostly Cloudy
3:51 AM 55.0 °F 21.9 °F 28% 29.88 in 9.0 mi NE 28.8 mph - N/A   Scattered Clouds
4:51 AM 54.0 °F 21.9 °F 29% 29.86 in 9.0 mi NE 31.1 mph - N/A   Overcast
5:51 AM 54.0 °F 23.0 °F 30% 29.88 in 9.0 mi ENE 24.2 mph - N/A   Overcast
6:51 AM 53.1 °F 23.0 °F 31% 29.94 in 8.0 mi ENE 13.8 mph - N/A   Overcast
7:51 AM 53.1 °F 24.1 °F 32% 29.97 in 7.0 mi ENE 8.1 mph - N/A   Overcast
8:51 AM 55.9 °F 25.0 °F 30% 29.97 in 8.0 mi ENE 11.5 mph - N/A   Clear
9:51 AM 61.0 °F 25.0 °F 25% 29.96 in 7.0 mi ENE 9.2 mph - N/A   Partly Cloudy
10:51 AM 64.0 °F 27.0 °F 25% 29.96 in 7.0 mi ENE 9.2 mph - N/A   Partly Cloudy
11:51 AM 68.0 °F 28.0 °F 22% 29.94 in 7.0 mi SSW 9.2 mph - N/A   Clear
12:51 PM 75.0 °F 28.9 °F 18% 29.89 in 7.0 mi WSW 19.6 mph 27.6 mph N/A   Clear
1:51 PM 77.0 °F 30.0 °F 18% 29.88 in 7.0 mi SW 17.3 mph 28.8 mph N/A   Mostly Cloudy
2:51 PM 79.0 °F 30.0 °F 17% 29.85 in 7.0 mi WSW 25.3 mph 34.5 mph N/A   Scattered Clouds
3:51 PM 78.1 °F 28.9 °F 17% 29.83 in 7.0 mi WSW 21.9 mph 31.1 mph N/A   Partly Cloudy
4:51 PM 77.0 °F 26.1 °F 15% 29.83 in 7.0 mi WSW 28.8 mph 35.7 mph N/A   Clear
5:51 PM 75.0 °F 28.0 °F 18% 29.84 in 7.0 mi WSW 27.6 mph - N/A   Clear
6:51 PM 72.0 °F 28.0 °F 20% 29.86 in 7.0 mi WSW 16.1 mph 27.6 mph N/A   Clear
7:51 PM 69.1 °F 28.0 °F 22% 29.89 in 7.0 mi WSW 11.5 mph - N/A   Clear
8:51 PM 66.9 °F 27.0 °F 22% 29.91 in 8.0 mi WSW 8.1 mph - N/A   Clear
9:51 PM 68.0 °F 23.0 °F 18% 29.90 in 8.0 mi WNW 6.9 mph - N/A   Clear
10:51 PM 66.0 °F 24.1 °F 20% 29.91 in 8.0 mi ENE 6.9 mph - N/A   Clear
11:51 PM 68.0 °F 23.0 °F 18% 29.88 in 8.0 mi NNW 4.6 mph - N/A   Clear